Regional Weather Roundup
Issued by NWS Wilmington, NC

Home | Current Version | Previous Version | Text Only | Print | Product List | Glossary On
Versions: 1 2 3 4 5 6 7 8 9 10 11 12 13 14 15 16 17 18 19 20 21 22 23 24 25 26 27 28 29 30 31 32 33 34 35 36 37 38 39 40 41 42 43 44 45 46 47 48 49 50
000
ASUS42 KILM 201313
RWRILM
RWRILM
REGIONAL HOURLY WEATHER ROUNDUP
NATIONAL WEATHER SERVICE WILMINGTON NC
800 AM EST MON NOV 20 2017

NOTE: "FAIR" INDICATES FEW OR NO CLOUDS BELOW 12,000 FEET WITH NO
SIGNIFICANT WEATHER AND/OR OBSTRUCTIONS TO VISIBILITY.

...............WFO WILMINGTON COUNTY WARNING AREA...............

......COASTAL NC AND SC COUNTIES......

CITY           SKY/WX    TMP DP  RH WIND       PRES   REMARKS
WILMINGTON     SUNNY     38  33  82 CALM      30.25R
N MYRTLE BEACH SUNNY     39  31  72 N6        30.24R WCI  35
MYRTLE BEACH   SUNNY     40  32  73 N7        30.26R

......INLAND NC AND SC COUNTIES.......

CITY           SKY/WX    TMP DP  RH WIND       PRES   REMARKS
LUMBERTON      SUNNY     33  31  92 CALM      30.26R
ELIZABETHTOWN  NOT AVBL
WHITEVILLE     SUNNY     35  31  87 CALM      30.24R
FLORENCE       SUNNY     35  30  82 N3        30.26R
DARLINGTON     SUNNY     34  31  88 N3        30.26R
KINGSTREE      FAIR      32  30  93 CALM      30.26R
HARTSVILLE     FAIR      34  32  93 CALM      30.25R
BENNETTSVILLE  FAIR      34  34 100 NW3       30.27R
CONWAY         FAIR      32  32 100 CALM      30.26R
GEORGETOWN     FAIR      36  34  93 CALM      30.27R
MARION         FAIR      32  30  93 CALM      30.26R FOG

....................REST OF NORTH CAROLINA......................

.........EASTERN NC.........

CITY           SKY/WX    TMP DP  RH WIND       PRES   REMARKS
CAPE HATTERAS  SUNNY     48  35  60 NW8G18    30.21R
JACKSONVILLE   SUNNY     36  32  85 CALM      30.25R
MOREHEAD CITY  SUNNY     43  33  68 N10       30.24R
KENANSVILLE    SUNNY     30  28  93 CALM      30.25R
NEW BERN       MOSUNNY   37  30  75 W5        30.25R WCI  33
ELIZABETH CITY MOSUNNY   38  31  76 W9        30.23R WCI  31

.........CENTRAL NC.........

CITY           SKY/WX    TMP DP  RH WIND       PRES   REMARKS
RALEIGH DURHAM SUNNY     33  28  81 CALM      30.26R
ROCKY MOUNT    MOSUNNY   36  29  75 W6        30.25R WCI  31
ROANOKE RAPIDS NOT AVBL
FAYETTEVILLE   SUNNY     37  30  75 CALM      30.25R
HOFFMAN        SUNNY     30  28  93 CALM      30.26R

.........WESTERN NC.........

CITY           SKY/WX    TMP DP  RH WIND       PRES   REMARKS
CHARLOTTE      CLEAR     32  30  92 CALM      30.24R
GREENSBORO     CLEAR     37  23  56 NW8       30.23R WCI  31
HICKORY        NOT AVBL
BOONE          NOT AVBL
ASHEVILLE      NOT AVBL

.....................REST OF SOUTH CAROLINA.....................

.........EASTERN SC.........

CITY           SKY/WX    TMP DP  RH WIND       PRES   REMARKS
CHARLESTON     SUNNY     42  35  76 NE5       30.25R
BEAUFORT MCAS  NOT AVBL
HILTON HEAD    SUNNY    N/A N/A N/A N7        30.23R

.........CENTRAL SC.........

CITY           SKY/WX    TMP DP  RH WIND       PRES   REMARKS
COLUMBIA       PTCLDY    33  31  92 CALM      30.25R
ORANGEBURG     SUNNY     33  32  96 CALM      30.26R
SUMTER SHAW    SUNNY     34  30  83 CALM      30.23R

.........WESTERN SC.........

CITY           SKY/WX    TMP DP  RH WIND       PRES   REMARKS
GREENVILLE     NOT AVBL
ROCK HILL      CLEAR     30  28  92 CALM      30.24R
ANDERSON       CLEAR     31  29  92 CALM      30.24R
CLEMSON        NOT AVBL
GREENWOOD      CLEAR     29  29 100 CALM      30.26R


...................COASTAL AND OFFSHORE REPORTS..................

................LOCAL PIERS AND NC RESERVE................


STATION/POSITION TIME  SKY/WX   TEMP    WIND        PRES    VSBY
                                AIR SEA DIR/SP/G
                 (UTC)          (F)     (DEG/KT/KT) (MB)    (MI)
JOHNY MRCER PIER 1248            42 62  330/  6/  9 1024.1R
NC RESRV MASNBRO 1145            34        CALM     1022.0
OCEAN CREST PIER NOT AVBL
SPRINGMAID  PIER 1248                               1023.5R


................COASTAL AND OFFSHORE BUOYS................


STATION/POSITION TIME  SKY/WX   TEMP    WIND        PRES    VSBY
                                AIR SEA DIR/SP/G
                 (UTC)          (F)     (DEG/KT/KT) (MB)    (MI)
DIMNDSHOAL 41025 1250            50 66  330/ 16/ 19 1022.9R
WVE H/P(F/S)=  5/ 9 SWL H/P/D(F/S/D)=  2/ 40/ 9

CAPE LOOKOUT     1200                   340/ 12/ 14 1022.7R
ONSLOW BAY 41036 NOT AVBL
ONSLOW BAY 41064 1208            51 69   10/ 14/ 19 1022.5R
ONSLOW BAY 41159 1300               69                N/A
WVE H/P(F/S)=  4/ 4

MASNBO INL 41110 1259               64                N/A
WVE H/P(F/S)=  2/ 3

WILM HARBR 41108 1300               62                N/A
WVE H/P(F/S)=  3/ 3

27SE WRITB 41037 1208            51 68  360/ 16/ 29 1022.3R
FRYING PAN 41013 1250            53 70   10/ 16/ 19 1023.0R
WVE H/P(F/S)=  4/ 6

SUNST NRSH 41024 1208            45 61   30/ 12/ 14 1022.9R
CAPRS NRSH 41029 1208            48 62   30/ 16/ 21 1022.5R
EDISTO     41004 1250            57 73   30/ 16/ 19 1022.7R
WVE H/P(F/S)=  4/ 5



..........OFFSHORE BUOYS BEYOND 100 NM OFFSHORE...........
.....IN A TRIANGLE---HAT TO BERMUDA TO BAHAMAS TO HAT.....


STATION/POSITION TIME  SKY/WX   TEMP    WIND        PRES    VSBY
                                AIR SEA DIR/SP/G
                 (UTC)          (F)     (DEG/KT/KT) (MB)    (MI)
150E HAT   41001 NOT AVBL
W BERMUDA  41048 1250            70 76  340/ 17/ 25 1017.6R
WVE H/P(F/S)= 10/10 SWL H/P/D(F/S/D)=  7/290/10

ATLANTIC S 41049 1150            79 79  160/ 12/ 14 1016.7
WVE H/P(F/S)=  5/11 SWL H/P/D(F/S/D)=  5/ 20/11

E BAHAMAS  41046 1250            80 81   60/ 14/ 16 1014.8R
WVE H/P(F/S)=  5/ 8 SWL H/P/D(F/S/D)=  3/ 60/ 8

NE BAHAMAS 41047 1250            71 80  310/ 17/ 19 1017.2R
WVE H/P(F/S)=  3/ 8 SWL H/P/D(F/S/D)=  3/100/ 8

120E CANVRL41010 NOT AVBL

END



USA.gov is the U.S. government's official web portal to all federal, state and local government web resources and services.